Home > Weather > Cheltenham > Past weeks

Flag for United Kingdom Past Weather in Cheltenham, England, United Kingdom — Yesterday and Last 2 Weeks

Now
57 °F

Cool.


Feels Like: 55 °F
Forecast: 58 / 67 °F
Wind: 8 mph from North

Location: Little Rissington

Current Time: Jul 28, 2016 at 2:05:29 AM

Latest Report: Jul 28, 2016 at 1:00 AM


Visibility: 25 mi

Pressure: 30.01 "Hg

Humidity: 78%

Dew Point: 51 °F

Location of CheltenhamLocation

Past Weather in Cheltenham — Graph

°F

Cheltenham Temperature Yesterday

Maximum temperature yesterday: 71 °F (at 3:00 PM)
Minimum temperature yesterday: 59 °F (at 3:00 AM)
Average temperature yesterday: 64 °F

High & Low Weather Summary for the Past Weeks

 TemperatureHumidityPressure
High88 °F (Jul 19, 2:00 PM)100% (Jul 18, 3:00 AM)30.33 "Hg (Jul 18, 3:00 AM)
Low46 °F (Jul 14, 5:00 AM)41% (Jul 19, 4:00 PM)29.68 "Hg (Jul 20, 8:00 AM)
Average63 °F82%30.09 "Hg
* Reported Jul 13 12:00 AM — Jul 28 12:00 AM, Cheltenham, Weather by CustomWeather, © 2016

Note: Actual official high and low records may vary slightly from our data, if they occured in-between our weather recording intervals... More about our weather records

Advertising

Cheltenham Weather History for the Previous 24 Hours

Scroll right to see more
 ConditionsComfort  
Time TempWeatherWind HumidityBarometerVisibility
12:00 AM
Thu, Jul 28
57 °FCool.8 mph86%30.01 "Hg25 mi
11:00 PM
Wed, Jul 27
60 °FCool.10 mph79%30.01 "Hg25 mi
10:00 PM62 °FCool.12 mph76%29.99 "Hg28 mi
9:00 PM65 °FMild.8 mph74%29.97 "Hg31 mi
8:00 PM67 °FMild.6 mph69%29.96 "Hg28 mi
7:00 PM69 °FMild.8 mph69%29.96 "Hg28 mi
6:00 PM69 °FMild.7 mph66%29.96 "Hg31 mi
5:00 PM71 °FMild.9 mph65%29.95 "Hg28 mi
4:00 PM71 °FMild.8 mph68%29.95 "Hg25 mi
3:00 PM71 °FMild.8 mph69%29.95 "Hg25 mi
2:00 PM69 °FMild.9 mph81%29.95 "Hg25 mi
1:00 PM68 °FMild.7 mph84%29.95 "Hg28 mi
12:00 PM64 °FMild.8 mph99%29.96 "Hg25 mi
11:00 AM63 °FMild.8 mph100%29.95 "Hg11 mi
10:00 AM62 °FCool.12 mph100%29.95 "Hg12 mi
9:00 AM62 °FCool.13 mph100%29.95 "Hg7 mi
8:00 AM60 °FCool.14 mph100%29.94 "Hg2 mi
7:00 AM59 °FCool.15 mph100%29.94 "Hg7 mi
6:00 AM59 °FCool.15 mph100%29.95 "Hg4 mi
5:00 AM59 °FCool.14 mph100%29.96 "Hg4 mi
4:00 AM59 °FCool.14 mph100%29.98 "Hg4 mi
3:00 AM59 °FCool.15 mph100%29.99 "Hg6 mi
2:00 AM59 °FCool.15 mph100%30.01 "Hg4 mi
Weather by CustomWeather, © 2016

See weather overviewHow to use our weather pages